| time (UTC) | temp C | wind direction | speed KPH | gust KPH | rain 1hr cm | rain 24hr cm | rain mn cm | humidity % | barometer mb |
| 20260904160004 | 33 | 240 | 4.8 | 8.0 | 0.00 | 0.00 | 0.00 | 65 | 1018.4 |
| 20260904154559 | 33 | 255 | 3.2 | 8.0 | 0.00 | 0.00 | 0.00 | 66 | 1018.3 |
| 20260904153125 | 33 | 227 | 3.2 | 6.4 | 0.00 | 0.00 | 0.00 | 67 | 1018.5 |
| 20260904151554 | 32 | 273 | 1.6 | 6.4 | 0.00 | 0.00 | 0.00 | 68 | 1018.3 |
| 20260904150047 | 31 | 273 | 3.2 | 6.4 | 0.00 | 0.00 | 0.00 | 72 | 1018.2 |
| 20260904144544 | 31 | 273 | 0.0 | 3.2 | 0.00 | 0.00 | 0.00 | 76 | 1018.1 |
| 20260904143041 | 31 | 273 | 1.6 | 4.8 | 0.00 | 0.00 | 0.00 | 77 | 1018.0 |
| 20260904141539 | 30 | 42 | 0.0 | 4.8 | 0.00 | 0.00 | 0.00 | 78 | 1017.8 |
| 20260904140039 | 30 | 46 | 0.0 | 3.2 | 0.00 | 0.00 | 0.00 | 78 | 1017.9 |
| 20260904134531 | 29 | 46 | 0.0 | 3.2 | 0.00 | 0.00 | 0.00 | 82 | 1018.1 |
| 20260904133029 | 27 | 46 | 0.0 | 3.2 | 0.00 | 0.00 | 0.00 | 88 | 1017.9 |
| 20260904131525 | 26 | 46 | 0.0 | 3.2 | 0.00 | 0.00 | 0.00 | 94 | 1017.9 |
| 20260904130025 | 25 | 46 | 0.0 | 0.0 | 0.00 | 0.00 | 0.00 | 95 | 1018.1 |
| 20260904124527 | 25 | 46 | 0.0 | 1.6 | 0.00 | 0.00 | 0.00 | 94 | 1017.8 |
| 20260904123022 | 24 | 46 | 0.0 | 0.0 | 0.00 | 0.00 | 0.00 | 94 | 1017.8 |
| 20260904121522 | 24 | 46 | 0.0 | 1.6 | 0.00 | 0.00 | 0.00 | 94 | 1017.6 |
| 20260904120027 | 23 | 46 | 1.6 | 4.8 | 0.00 | 0.00 | 0.00 | 94 | 1017.5 |
| 20260904114520 | 23 | 340 | 0.0 | 0.0 | 0.00 | 0.00 | 0.00 | 93 | 1017.3 |
| 20260904113017 | 23 | 340 | 0.0 | 3.2 | 0.00 | 0.00 | 0.00 | 93 | 1017.0 |
| 20260904111515 | 24 | 340 | 0.0 | 1.6 | 0.00 | 0.00 | 0.00 | 93 | 1016.9 |
| 20260904110015 | 24 | 340 | 4.8 | 6.4 | 0.00 | 0.00 | 0.00 | 93 | 1017.0 |
| 20260904104512 | 25 | 166 | 1.6 | 4.8 | 0.00 | 0.00 | 0.00 | 91 | 1016.8 |
| 20260904103010 | 25 | 166 | 0.0 | 1.6 | 0.00 | 0.00 | 0.00 | 92 | 1016.7 |
| 20260904101512 | 25 | 166 | 3.2 | 4.8 | 0.00 | 0.00 | 0.00 | 91 | 1016.8 |
| 20260904100008 | 25 | 166 | 0.0 | 0.0 | 0.00 | 0.00 | 0.00 | 91 | 1016.5 |
| 20260904094511 | 25 | 166 | 0.0 | 3.2 | 0.00 | 0.00 | 0.00 | 91 | 1016.5 |
| 20260904093008 | 25 | 166 | 0.0 | 3.2 | 0.00 | 0.00 | 0.00 | 90 | 1016.4 |
| 20260904091504 | 25 | 166 | 0.0 | 4.8 | 0.00 | 0.00 | 0.00 | 90 | 1016.1 |
| 20260904090004 | 25 | 166 | 0.0 | 0.0 | 0.00 | 0.00 | 0.00 | 90 | 1016.1 |
| 20260904084503 | 25 | 166 | 0.0 | 0.0 | 0.00 | 0.00 | 0.00 | 89 | 1016.0 |
| 20260904083001 | 25 | 166 | 0.0 | 1.6 | 0.00 | 0.00 | 0.00 | 91 | 1015.9 |
| 20260904081600 | 25 | 166 | 0.0 | 1.6 | 0.00 | 0.00 | 0.00 | 90 | 1015.8 |
| 20260904080059 | 25 | 166 | 0.0 | 3.2 | 0.00 | 0.00 | 0.00 | 90 | 1016.0 |
| 20260904074601 | 25 | 166 | 0.0 | 3.2 | 0.00 | 0.00 | 0.00 | 90 | 1016.0 |
| 20260904073100 | 25 | 166 | 1.6 | 4.8 | 0.00 | 0.00 | 0.00 | 90 | 1016.0 |
| 20260904071559 | 26 | 166 | 1.6 | 4.8 | 0.00 | 0.00 | 0.00 | 89 | 1016.1 |
| 20260904070054 | 26 | 166 | 4.8 | 6.4 | 0.00 | 0.00 | 0.00 | 89 | 1016.0 |
| 20260904064552 | 26 | 166 | 0.0 | 0.0 | 0.00 | 0.00 | 0.00 | 88 | 1016.3 |
| 20260904063052 | 26 | 166 | 0.0 | 1.6 | 0.00 | 0.00 | 0.00 | 86 | 1016.4 |
| 20260904061550 | 27 | 166 | 0.0 | 0.0 | 0.00 | 0.00 | 0.00 | 84 | 1016.2 |
| 20260904060044 | 27 | 166 | 0.0 | 3.2 | 0.00 | 0.00 | 0.00 | 83 | 1016.3 |
| 20260904054546 | 27 | 166 | 0.0 | 3.2 | 0.00 | 0.00 | 0.00 | 83 | 1016.3 |
| 20260904053052 | 27 | 166 | 0.0 | 1.6 | 0.00 | 0.00 | 0.00 | 83 | 1016.2 |
| 20260904051538 | 27 | 166 | 0.0 | 3.2 | 0.00 | 0.00 | 0.00 | 82 | 1016.4 |
| 20260904050036 | 28 | 166 | 0.0 | 1.6 | 0.00 | 0.00 | 0.00 | 83 | 1016.4 |
| 20260904044536 | 28 | 166 | 0.0 | 0.0 | 0.00 | 0.00 | 0.00 | 82 | 1016.3 |
| 20260904043035 | 28 | 166 | 0.0 | 0.0 | 0.00 | 0.00 | 0.00 | 81 | 1016.4 |
| 20260904041539 | 28 | 166 | 0.0 | 3.2 | 0.00 | 0.00 | 0.00 | 81 | 1016.4 |
| 20260904040037 | 28 | 166 | 0.0 | 1.6 | 0.00 | 0.00 | 0.00 | 81 | 1016.4 |
| 20260904034534 | 28 | 166 | 0.0 | 0.0 | 0.00 | 0.00 | 0.00 | 80 | 1016.5 |
| 20260904033039 | 28 | 166 | 0.0 | 1.6 | 0.00 | 0.00 | 0.00 | 79 | 1016.6 |
| 20260904031533 | 29 | 166 | 0.0 | 1.6 | 0.00 | 0.00 | 0.00 | 79 | 1016.7 |
| 20260904030032 | 30 | 166 | 0.0 | 1.6 | 0.00 | 0.00 | 0.00 | 78 | 1016.5 |
| 20260904024532 | 30 | 166 | 0.0 | 3.2 | 0.00 | 0.00 | 0.00 | 77 | 1016.5 |
| 20260904023032 | 30 | 166 | 0.0 | 1.6 | 0.00 | 0.00 | 0.00 | 76 | 1016.6 |
| 20260904021533 | 30 | 166 | 0.0 | 1.6 | 0.00 | 0.00 | 0.00 | 76 | 1016.5 |
| 20260904020030 | 30 | 166 | 1.6 | 4.8 | 0.00 | 0.00 | 0.00 | 74 | 1016.6 |
| 20260904014540 | 30 | 166 | 3.2 | 6.4 | 0.00 | 0.00 | 0.00 | 73 | 1016.3 |
| 20260904013032 | 31 | 166 | 0.0 | 1.6 | 0.00 | 0.00 | 0.00 | 72 | 1016.1 |
| 20260904011528 | 31 | 166 | 1.6 | 6.4 | 0.00 | 0.00 | 0.00 | 70 | 1016.1 |
| 20260904010028 | 32 | 166 | 3.2 | 6.4 | 0.00 | 0.00 | 0.00 | 68 | 1016.0 |
| 20260904004528 | 32 | 166 | 4.8 | 8.0 | 0.00 | 0.00 | 0.00 | 66 | 1015.8 |
| 20260904003028 | 33 | 166 | 0.0 | 3.2 | 0.00 | 0.00 | 0.00 | 66 | 1015.7 |
| 20260904001526 | 33 | 166 | 6.4 | 8.0 | 0.00 | 0.00 | 0.00 | 64 | 1015.5 |
| 20260904000026 | 35 | 165 | 0.0 | 3.2 | 0.00 | 0.00 | 0.00 | 65 | 1015.6 |
| 20260903234524 | 35 | 165 | 1.6 | 4.8 | 0.00 | 0.00 | 0.00 | 57 | 1015.5 |
| 20260903233024 | 35 | 166 | 3.2 | 4.8 | 0.00 | 0.00 | 0.00 | 57 | 1015.4 |
| 20260903231523 | 36 | 161 | 3.2 | 8.0 | 0.00 | 0.00 | 0.00 | 57 | 1015.3 |
| 20260903230042 | 36 | 163 | 4.8 | 9.7 | 0.00 | 0.00 | 0.00 | 55 | 1015.3 |
| 20260903224527 | 36 | 128 | 3.2 | 9.7 | 0.00 | 0.00 | 0.00 | 56 | 1015.3 |
| 20260903223021 | 36 | 186 | 6.4 | 9.7 | 0.00 | 0.00 | 0.00 | 56 | 1015.4 |
| 20260903221521 | 36 | 192 | 6.4 | 9.7 | 0.00 | 0.00 | 0.00 | 57 | 1015.4 |
| 20260903220020 | 35 | 196 | 8.0 | 14.5 | 0.00 | 0.00 | 0.00 | 56 | 1015.4 |
| 20260903214535 | 36 | 199 | 11.3 | 17.7 | 0.00 | 0.00 | 0.00 | 55 | 1015.4 |
| 20260903213021 | 36 | 186 | 6.4 | 11.3 | 0.00 | 0.00 | 0.00 | 54 | 1015.5 |
| 20260903211516 | 36 | 227 | 8.0 | 14.5 | 0.00 | 0.00 | 0.00 | 55 | 1015.6 |
| 20260903210014 | 36 | 213 | 4.8 | 16.1 | 0.00 | 0.00 | 0.00 | 53 | 1015.8 |
| 20260903204512 | 36 | 150 | 4.8 | 14.5 | 0.00 | 0.00 | 0.00 | 55 | 1016.0 |
| 20260903203010 | 36 | 217 | 9.7 | 19.3 | 0.00 | 0.00 | 0.00 | 52 | 1016.0 |
| 20260903201506 | 36 | 196 | 9.7 | 14.5 | 0.00 | 0.00 | 0.00 | 53 | 1016.3 |
| 20260903200006 | 36 | 199 | 8.0 | 20.9 | 0.00 | 0.00 | 0.00 | 52 | 1016.5 |
| 20260903194502 | 36 | 235 | 9.7 | 17.7 | 0.00 | 0.00 | 0.00 | 55 | 1016.6 |
| 20260903193118 | 36 | 239 | 8.0 | 17.7 | 0.00 | 0.00 | 0.00 | 56 | 1016.8 |
| 20260903191606 | 36 | 220 | 14.5 | 19.3 | 0.00 | 0.00 | 0.00 | 56 | 1017.0 |
| 20260903184554 | 35 | 191 | 9.7 | 30.6 | 0.00 | 0.00 | 0.00 | 54 | 1017.1 |
| 20260903183052 | 35 | 188 | 12.9 | 19.3 | 0.00 | 0.00 | 0.00 | 57 | 1017.1 |
| 20260903181557 | 35 | 207 | 12.9 | 19.3 | 0.00 | 0.00 | 0.00 | 58 | 1017.4 |
| 20260903180058 | 35 | 190 | 8.0 | 19.3 | 0.00 | 0.00 | 0.00 | 59 | 1017.5 |
| 20260903174546 | 35 | 245 | 12.9 | 22.5 | 0.00 | 0.00 | 0.00 | 60 | 1017.7 |
| 20260903173052 | 35 | 155 | 6.4 | 19.3 | 0.00 | 0.00 | 0.00 | 59 | 1017.7 |
| 20260903171542 | 35 | 168 | 3.2 | 14.5 | 0.00 | 0.00 | 0.00 | 60 | 1017.9 |
| 20260903170118 | 35 | 255 | 8.0 | 14.5 | 0.00 | 0.00 | 0.00 | 60 | 1018.2 |
| 20260903164539 | 35 | 154 | 1.6 | 6.4 | 0.00 | 0.00 | 0.00 | 62 | 1018.3 |
| 20260903163032 | 33 | 171 | 6.4 | 14.5 | 0.00 | 0.00 | 0.00 | 65 | 1018.4 |
| 20260903161529 | 33 | 267 | 4.8 | 9.7 | 0.00 | 0.00 | 0.00 | 65 | 1018.4 |